STARLINK-32651 (62314 NORAD) Tracking and Keplerian Element Data

This shows tracking and keplerian element data for the satellite.

Feedback or suggestion? Click here.




ElementValue
Catalog62314
NameSTARLINK-32651
Epoch Orbit826
Epoch Day34.84537597
Epoch Year2025
RAAN250.4441
Inclination53.1568
Eccentricity0.0001008
Argument of Perigee67.1926
Mean Anonmoly292.9185
Mean Motion15.39620044
Decay Rate3.79E-06
L11 62314U 24239P 25034.84537597 .00000379 00000+0 19455-4 0 9994
L22 62314 53.1568 250.4441 0001008 67.1926 292.9185 15.39620044 8262



Live tracking and technical data element details for STARLINK-32651 (NORAD 62314). STARLINK-32651 can be tracked NOW for your location showing map with azimuth and elevation plus other details from your city location.







IsCatalogInMostPopularTable: catalog: 62314, numindb: 15
Update: records affected: 1



GetName: 62314 STARLINK-32651

Hit Count: updated at: Sun, 18 May 2025 21:44:16 GMT